Location: ???????
(55.4362°N, 38.1183°E)
Time: 07:52:17
(UTC+00:00)

Lacrosse 4 Rocket - Pass Details

Date: 23 October 2021
Orbit: 537 x 619 km, 68.0° (Epoch: 30 November)

Event Time Altitude Azimuth Distance (km) Brightness Sun altitude
Rises 17:24:16 0° 306° (NW) 2,815 6.1 -28.0°
Reaches altitude 10° 17:28:11 10° 270° (W) 1,931 4.9 -28.5°
Maximum altitude 17:29:19 11° 255° (WSW) 1,875 4.6 -28.7°
Drops below altitude 10° 17:30:27 10° 240° (WSW) 1,939 4.5 -28.8°
Enters shadow 17:33:01 - 213° (SSW) 2,444 4.7 -29.2°
